Waarnemingen

Advertentie
Mijn weer
Bergerac, Frankrijk (7530): temperatuur & dauwpunt: 31.05.2020 01:00:00 - 06.06.2020 01:00:00 (CEST)Bergerac, Frankrijk (7530): temperatuur 5cm: 31.05.2020 01:00:00 - 06.06.2020 01:00:00 (CEST)Bergerac, Frankrijk (7530): temperatuur -20cm & temperatuur -100cm: 31.05.2020 01:00:00 - 06.06.2020 01:00:00 (CEST)Bergerac, Frankrijk (7530): windsnelheid & windstoten: 31.05.2020 01:00:00 - 06.06.2020 01:00:00 (CEST)Bergerac, Frankrijk (7530): windrichting: 31.05.2020 01:00:00 - 06.06.2020 01:00:00 (CEST)Bergerac, Frankrijk (7530): luchtdruk: 31.05.2020 01:00:00 - 06.06.2020 01:00:00 (CEST)Bergerac, Frankrijk (7530): zicht: 31.05.2020 01:00:00 - 06.06.2020 01:00:00 (CEST)Bergerac, Frankrijk (7530): Zonneschijnduur: 31.05.2020 01:00:00 - 06.06.2020 01:00:00 (CEST)Bergerac, Frankrijk (7530): neerslag: 31.05.2020 01:00:00 - 06.06.2020 01:00:00 (CEST)
Datum & Tijd tt [°C] td [°C] tt 5cm [°C] tt -20cm [°C] tt -100cm [°C] ff [km/u] ff [kn] fx [km/u] fx [kn] dd ppp [hPa] vv [km] sd [min] rr [mm]
06.06.2020 01:00:00 15,6 14,0 15,0 17,7 16,2 12 7 24 13 ZW 1011,0 13 0 0,0
06.06.2020 00:00:00 16,1 13,0 15,3 17,7 16,2 16 8 27 15 ZW 1011,0 53 0 0,0
05.06.2020 23:00:00 16,1 12,8 15,4 17,8 16,2 16 9 32 17 ZW 1011,0 20 0 0,0
05.06.2020 22:00:00 16,5 13,0 15,8 17,8 16,2 15 8 31 17 WZW 1010,5 58 0 0,0
05.06.2020 21:00:00 17,0 12,9 16,4 17,8 16,3 18 10 37 20 WZW 1010,2 60 0 0,0
05.06.2020 20:00:00 17,5 13,6 16,9 17,8 16,2 22 12 40 22 WZW 1010,2 51 8 0,0
05.06.2020 19:00:00 17,0 13,7 16,2 17,7 16,2 21 11 42 23 WZW 1009,9 17 0 0,0
05.06.2020 18:00:00 18,0 14,3 16,6 17,7 16,2 20 11 36 19 W 1009,9 18 8 0,0
05.06.2020 17:00:00 17,1 14,7 16,1 17,7 16,2 19 10 46 25 W 1010,1 6 0 0,8
05.06.2020 16:00:00 18,3 12,5 18,6 17,6 16,2 27 15 49 26 WZW 1010,0 15 5 0,0
05.06.2020 15:00:00 19,3 14,3 17,1 17,6 16,2 30 16 56 30 W 1009,9 8 23 0,0
05.06.2020 14:00:00 18,6 12,6 18,1 17,5 16,2 30 16 60 32 WZW 1009,9 6 9 0,0
05.06.2020 13:00:00 17,2 14,1 16,2 17,5 16,2 23 12 40 22 WZW 1009,8 5 1 0,2
05.06.2020 12:00:00 16,6 13,1 15,6 17,6 16,2 18 10 42 23 W 1009,8 19 0 0,2
05.06.2020 11:00:00 15,6 12,3 15,2 17,6 16,2 18 10 36 20 WZW 1009,9 14 0 0,0
05.06.2020 10:00:00 14,7 12,6 14,4 17,7 16,2 20 11 35 19 W 1010,2 12 0 0,0
05.06.2020 09:00:00 14,5 10,5 13,3 17,7 16,2 18 10 27 15 WZW 1010,0 46 0 0,0
05.06.2020 08:00:00 13,8 9,8 12,7 17,8 16,2 14 7 23 12 WZW 1009,7 43 5 0,0
05.06.2020 07:00:00 12,9 11,5 12,2 17,9 16,2 8 4 12 7 WZW 1009,2 34 0 0,0
05.06.2020 06:00:00 12,9 10,8 12,2 18,0 16,3 9 5 38 20 W 1008,9 40 0 0,2
05.06.2020 05:00:00 14,3 10,3 13,1 18,1 16,2 21 12 33 18 W 1008,7 20 0 0,0
05.06.2020 04:00:00 14,1 10,7 12,3 18,1 16,2 16 9 23 13 W 1008,5 45 0 0,0
05.06.2020 03:00:00 13,8 10,8 12,5 18,2 16,2 15 8 23 12 W 1008,6 42 0 0,0
05.06.2020 02:00:00 14,4 11,0 13,2 18,3 16,2 16 9 29 15 W 1008,7 45 0 0,0
05.06.2020 01:00:00 14,9 11,5 14,0 18,3 16,2 17 9 29 16 W 1008,4 46 0 0,0
05.06.2020 00:00:00 15,4 11,6 14,2 18,4 16,2 20 11 34 19 W 1007,8 44 0 0,0
04.06.2020 23:00:00 16,2 12,6 14,9 18,4 16,2 19 10 25 14 W 1007,0 38 0 0,0
04.06.2020 22:00:00 16,4 12,4 15,3 18,5 16,2 17 9 36 19 WNW 1005,9 38 10 0,0
04.06.2020 21:00:00 17,2 12,1 14,9 18,5 16,2 25 14 34 18 W 1004,8 52 6 0,0
04.06.2020 20:00:00 18,7 11,5 15,9 18,5 16,2 21 11 33 18 NW 1003,9 60 21 0,0
04.06.2020 19:00:00 17,4 13,7 16,1 18,4 16,2 11 6 35 19 NW 1003,0 52 12 0,6
04.06.2020 18:00:00 19,0 11,6 19,2 18,4 16,2 17 9 35 19 W 1002,5 38 19 0,0
04.06.2020 17:00:00 19,9 12,9 17,1 18,3 16,2 18 10 32 17 WNW 1002,2 29 39 0,0
04.06.2020 16:00:00 16,4 11,5 16,9 18,2 16,2 24 13 49 26 W 1002,2 36 17 0,0
04.06.2020 15:00:00 18,9 12,9 21,9 18,1 16,2 29 15 46 25 WNW 1002,0 43 27 0,0
04.06.2020 14:00:00 19,2 9,9 18,2 18,1 16,2 24 13 42 23 WZW 1001,9 60 13 0,0
04.06.2020 13:00:00 21,2 10,4 23,3 18,0 16,2 25 14 40 22 WZW 1001,5 29 50 0,0
04.06.2020 12:00:00 20,5 11,4 20,4 18,0 16,2 22 12 40 21 ZW 1001,6 20 32 0,0
04.06.2020 11:00:00 18,2 12,2 17,9 18,0 16,2 13 7 26 14 WZW 1001,8 20 17 0,0
04.06.2020 10:00:00 17,1 12,6 17,9 18,1 16,2 15 8 22 12 W 1002,2 32 5 0,0
04.06.2020 09:00:00 16,9 13,4 16,9 18,2 16,2 10 5 19 10 ZW 1002,2 37 27 0,0
04.06.2020 08:00:00 15,8 14,0 10,4 18,3 16,2 11 6 17 9 ZW 1002,3 20 57 0,0
04.06.2020 07:00:00 11,9 11,1 9,1 18,4 16,2 2 1 5 3 ZZO 1002,6 15 3 0,0
04.06.2020 06:00:00 11,9 10,5 8,9 18,6 16,2 4 2 11 6 ONO 1002,8 15 0 0,0
04.06.2020 05:00:00 13,8 12,2 9,7 18,7 16,1 8 4 11 6 ZW 1002,9 22 0 0,0
04.06.2020 04:00:00 14,6 12,5 10,3 18,8 16,2 6 3 11 6 ZW 1003,3 28 0 0,0
04.06.2020 03:00:00 15,5 12,4 12,9 18,9 16,2 9 5 15 8 WZW 1003,9 37 0 0,0
04.06.2020 02:00:00 15,8 12,4 14,0 18,9 16,1 9 5 18 10 W 1004,2 36 0 0,0
04.06.2020 01:00:00 16,0 11,4 14,1 19,0 16,1 12 7 26 14 W 1004,6 45 0 0,0
04.06.2020 00:00:00 18,0 10,4 16,2 19,1 16,2 20 11 35 19 W 1004,6 59 0 0,0
03.06.2020 23:00:00 19,5 10,2 16,7 19,1 16,1 17 9 28 15 W 1004,3 51 0 0,0
03.06.2020 22:00:00 20,1 10,5 17,1 19,1 16,1 13 7 29 16 WNW 1003,9 13 13 0,0
03.06.2020 21:00:00 22,3 8,8 20,8 19,1 16,1 23 13 42 23 WNW 1003,9 59 52 0,0
03.06.2020 20:00:00 23,6 11,6 22,2 19,0 16,0 26 14 44 24 W 1003,6 35 55 0,0
03.06.2020 19:00:00 25,4 11,6 25,4 18,9 16,1 31 17 49 26 W 1003,3 21 60 0,0
03.06.2020 18:00:00 26,8 13,2 27,6 18,8 16,1 28 15 48 26 W 1003,4 23 52 0,0
03.06.2020 17:00:00 27,7 15,0 27,3 18,7 16,1 26 14 44 24 W 1003,6 21 54 0,0
03.06.2020 16:00:00 26,7 15,4 25,8 18,5 16,1 21 12 37 20 WZW 1004,5 27 11 0,0
03.06.2020 15:00:00 27,0 15,7 26,7 18,4 16,1 19 10 33 18 Z 1005,2 19 43 0,0
03.06.2020 14:00:00 25,9 14,4 25,3 18,3 16,1 14 7 29 16 ZW 1006,0 10 31 0,0
03.06.2020 13:00:00 26,0 14,5 26,1 18,1 16,1 17 9 26 14 W 1006,8 52 27 0,0
03.06.2020 12:00:00 25,4 14,5 26,8 18,1 16,1 6 3 19 10 NW 1007,5 56 42 0,0
03.06.2020 11:00:00 26,0 15,4 23,5 18,1 16,1 3 2 13 7 WNW 1008,0 19 43 0,0
03.06.2020 10:00:00 23,4 16,2 23,3 18,1 16,1 3 2 8 5 ONO 1008,7 52 54 0,0
03.06.2020 09:00:00 20,1 15,7 16,6 18,2 16,1 4 2 11 6 ONO 1009,1 37 60 0,0
03.06.2020 08:00:00 15,7 14,6 11,6 18,3 16,1 7 4 12 6 ONO 1009,4 22 60 0,0
03.06.2020 07:00:00 12,3 11,8 9,2 18,5 16,1 6 4 8 4 ONO 1009,8 16 21 0,2
03.06.2020 06:00:00 11,8 11,2 9,2 18,6 16,1 7 4 9 5 O 1010,0 17 0 0,0
03.06.2020 05:00:00 12,0 11,2 9,6 18,7 16,1 4 2 6 3 ONO 1010,3 8 0 0,0
03.06.2020 04:00:00 12,3 11,5 10,1 18,9 16,1 5 3 7 4 ZO 1010,9 17 0 0,0
03.06.2020 03:00:00 13,5 12,6 10,4 19,0 16,1 3 2 6 3 ONO 1011,7 13 0 0,0
03.06.2020 02:00:00 14,1 13,0 11,2 19,2 16,1 6 3 9 5 O 1012,2 20 0 0,0
03.06.2020 01:00:00 14,8 13,0 11,2 19,2 16,0 5 3 7 4 ONO 1012,7 34 0 0,0
03.06.2020 00:00:00 16,1 13,4 12,4 19,3 16,0 5 3 6 4 ONO 1013,0 45 0 0,0
02.06.2020 23:00:00 17,4 13,3 13,4 19,3 16,1 3 2 8 4 ZO 1012,9 58 0 0,0
02.06.2020 22:00:00 21,0 13,7 15,0 19,3 16,0 3 1 8 5 O 1012,6 16 9 0,0
02.06.2020 21:00:00 25,2 12,8 19,2 19,3 16,1 6 4 10 5 NO 1012,4 60 60 0,0
02.06.2020 20:00:00 27,6 11,2 23,6 19,2 16,0 2 1 15 8 W 1012,5 56 60 0,0
02.06.2020 19:00:00 27,7 12,5 27,4 19,1 16,0 6 4 17 9 NNW 1012,8 19 60 0,0
02.06.2020 18:00:00 28,1 13,2 33,1 19,0 16,0 6 3 18 10 NNW 1013,4 37 60 0,0
02.06.2020 17:00:00 27,6 13,2 26,8 18,8 16,0 5 3 16 9 OZO 1014,0 49 43 0,0
02.06.2020 16:00:00 27,1 12,7 27,7 18,6 16,0 9 5 18 10 NO 1014,5 60 36 0,0
02.06.2020 15:00:00 26,5 14,3 27,1 18,4 16,0 7 4 23 12 NNW 1015,2 60 40 0,0
02.06.2020 14:00:00 25,7 14,5 32,0 18,2 16,0 4 2 24 13 N 1015,7 60 49 0,0
02.06.2020 13:00:00 24,8 14,9 30,4 18,1 16,0 9 5 19 10 NNO 1016,1 60 55 0,0
02.06.2020 12:00:00 23,5 15,3 31,9 18,0 16,0 12 6 24 13 ONO 1016,6 41 60 0,0
02.06.2020 11:00:00 21,3 16,0 26,5 18,0 16,0 10 6 19 10 NO 1016,9 46 60 0,0
02.06.2020 10:00:00 18,8 17,1 19,2 18,0 16,0 5 3 14 8 NO 1017,1 28 60 0,0
02.06.2020 09:00:00 15,2 14,7 14,7 18,2 16,0 5 3 15 8 ONO 1017,2 10 18 0,0
02.06.2020 08:00:00 13,3 12,8 13,0 18,3 16,0 10 5 15 8 O 1016,9 0,8 0 0,0
02.06.2020 07:00:00 12,6 12,1 9,7 18,5 16,0 6 3 8 5 ONO 1017,0 0,2 1 0,0
02.06.2020 06:00:00 11,3 10,7 8,2 18,7 16,0 3 2 5 3 O 1016,6 0,5 0 0,0
02.06.2020 05:00:00 11,1 10,5 8,5 18,8 16,0 3 1 5 3 Z 1016,6 9 0 0,2
02.06.2020 04:00:00 12,2 11,6 9,5 18,9 16,0 4 2 12 7 ONO 1016,8 10 0 0,0
02.06.2020 03:00:00 12,5 11,9 10,5 19,1 16,0 7 4 13 7 O 1016,8 13 0 0,0
02.06.2020 02:00:00 13,0 12,4 9,9 19,2 16,0 8 4 12 7 ONO 1016,9 17 0 0,0
02.06.2020 01:00:00 13,6 12,7 10,7 19,3 15,9 4 2 9 5 ZO 1016,8 19 0 0,0
02.06.2020 00:00:00 14,7 13,2 11,3 19,4 15,9 5 3 9 5 NNO 1016,6 50 0 0,0
01.06.2020 23:00:00 15,7 13,0 13,7 19,5 15,9 4 2 14 7 ZO 1016,3 60 0 0,2
01.06.2020 22:00:00 17,1 12,0 14,8 19,5 15,9 8 4 36 19 O 1016,1 49 0 0,0
01.06.2020 21:00:00 16,9 12,0 15,1 19,5 15,9 20 11 45 24 O 1016,4 60 22 0,0
01.06.2020 20:00:00 18,8 12,5 16,1 19,5 15,9 28 15 43 23 ONO 1015,6 38 11 0,4
01.06.2020 19:00:00 22,9 17,4 20,6 19,4 15,9 8 4 16 9 WZW 1014,4 11 0 0,6
01.06.2020 18:00:00 25,0 14,5 22,6 19,3 15,9 7 4 22 12 Z 1013,9 59 0 0,0
01.06.2020 17:00:00 26,3 14,1 26,9 19,1 15,9 11 6 27 15 Z 1013,6 53 47 0,0
01.06.2020 16:00:00 27,1 15,8 32,0 18,9 15,9 14 7 29 15 ZZO 1013,7 20 53 0,0
01.06.2020 15:00:00 26,8 15,5 29,9 18,7 15,9 18 10 31 17 ZZW 1014,3 59 39 0,0
01.06.2020 14:00:00 26,7 15,7 32,7 18,5 15,9 8 4 26 14 ZO 1014,4 35 56 0,0
01.06.2020 13:00:00 26,0 15,1 33,5 18,4 15,9 8 4 28 15 ZZO 1014,5 31 60 0,0
01.06.2020 12:00:00 24,4 14,8 32,4 18,3 15,9 14 7 27 15 ZO 1014,7 30 60 0,0
01.06.2020 11:00:00 23,2 14,5 27,0 18,3 15,9 16 9 30 16 ZZO 1014,4 35 56 0,0
01.06.2020 10:00:00 22,7 14,8 24,1 18,4 15,9 11 6 25 13 OZO 1014,5 41 60 0,0
01.06.2020 09:00:00 21,0 14,4 20,0 18,5 15,9 10 6 28 15 ZO 1014,2 48 60 0,0
01.06.2020 08:00:00 19,3 14,5 15,1 18,6 15,8 5 3 13 7 O 1013,9 40 60 0,0
01.06.2020 07:00:00 15,3 14,2 12,3 18,7 15,9 8 4 11 6 ONO 1013,8 20 20 0,0
01.06.2020 06:00:00 14,3 12,8 11,6 18,8 15,9 9 5 10 5 ONO 1013,2 20 0 0,0
01.06.2020 05:00:00 15,5 13,2 12,0 18,9 15,9 8 4 10 6 O 1013,2 35 0 0,0
01.06.2020 04:00:00 17,1 13,6 12,6 19,0 15,9 6 4 12 7 O 1013,1 46 0 0,0
01.06.2020 03:00:00 17,2 13,5 13,4 19,1 15,9 6 3 15 8 O 1013,1 43 0 0,0
01.06.2020 02:00:00 18,7 14,4 13,9 19,1 15,8 9 5 16 8 O 1013,1 50 0 0,0
01.06.2020 01:00:00 20,3 13,7 15,0 19,2 15,9 5 3 19 10 OZO 1013,0 57 0 0,0
01.06.2020 00:00:00 23,1 13,8 17,3 19,2 15,9 5 3 16 8 Z 1012,7 59 0 0,0
31.05.2020 23:00:00 20,9 15,7 17,4 19,3 15,9 7 4 11 6 O 1012,2 53 0 0,0
31.05.2020 22:00:00 21,5 15,6 17,3 19,2 15,8 3 2 5 3 ZO 1011,2 15 11 0,0
31.05.2020 21:00:00 25,8 15,2 20,4 19,1 15,8 2 1 9 5 N 1010,9 55 55 0,0
31.05.2020 20:00:00 27,6 13,5 22,3 19,0 15,8 7 4 10 6 NNO 1010,5 60 31 0,0
31.05.2020 19:00:00 27,8 11,8 24,3 18,9 15,8 5 3 16 9 NNW 1010,2 51 37 0,0
31.05.2020 18:00:00 29,2 11,7 27,2 18,7 15,8 5 3 22 12 ONO 1010,7 46 55 0,0
31.05.2020 17:00:00 28,2 12,1 28,7 18,5 15,8 5 3 22 12 O 1011,0 58 46 0,0
31.05.2020 16:00:00 29,3 14,3 36,4 18,3 15,8 9 5 27 14 O 1011,2 20 57 0,0
31.05.2020 15:00:00 27,9 14,2 30,9 18,0 15,8 8 4 19 11 ONO 1011,6 41 41 0,0
31.05.2020 14:00:00 27,8 14,1 35,1 17,8 15,8 9 5 24 13 OZO 1012,1 20 58 0,0
31.05.2020 13:00:00 26,7 14,5 33,8 17,7 15,8 9 5 23 12 Z 1012,5 46 60 0,0
31.05.2020 12:00:00 25,5 14,0 34,5 17,7 15,8 8 4 25 14 OZO 1012,6 39 60 0,0
31.05.2020 11:00:00 23,9 14,0 28,3 17,6 15,8 12 6 21 11 O 1012,6 40 60 0,0
31.05.2020 10:00:00 21,7 13,6 24,4 17,7 15,8 11 6 22 12 ZO 1013,0 43 60 0,0
31.05.2020 09:00:00 19,4 13,8 15,7 17,8 15,7 7 4 11 6 O 1013,1 52 60 0,0
31.05.2020 08:00:00 15,8 11,2 10,0 17,9 15,8 5 3 8 4 O 1013,2 38 60 0,0
31.05.2020 07:00:00 12,1 10,2 8,0 18,1 15,8 3 2 7 4 O 1013,2 50 20 0,0
31.05.2020 06:00:00 10,4 8,8 8,0 18,2 15,8 6 3 11 6 O 1012,8 46 0 0,0
31.05.2020 05:00:00 11,5 8,7 8,4 18,4 15,7 2 1 9 5 ONO 1012,6 44 0 0,0
31.05.2020 04:00:00 12,7 9,9 8,8 18,5 15,7 6 3 9 5 O 1012,5 43 0 0,0
31.05.2020 03:00:00 13,0 9,4 9,1 18,6 15,7 6 3 10 5 ONO 1012,9 20 0 0,0
31.05.2020 02:00:00 13,4 9,4 9,6 18,8 15,7 0 0 8 4 N 1013,2 60 0 0,0
31.05.2020 01:00:00 15,1 9,7 10,5 18,9 15,7 5 3 7 4 O 1013,5 60 0 0,0

tt = temperatuur
td = dauwpunt
tt 5cm = temperatuur 5cm
tt -20cm = temperatuur -20cm
tt -100cm = temperatuur -100cm
ff = windsnelheid
fx = windstoten
dd = windrichting
ppp = luchtdruk
vv = zicht
sd = Zonneschijnduur
rr = neerslag

Weerstations in de omgeving